TimeCDT,TemperatureF,Dew PointF,Humidity,Sea Level PressureIn,VisibilityMPH,Wind Direction,Wind SpeedMPH,Gust SpeedMPH,PrecipitationIn,Events,Conditions,WindDirDegrees,DateUTC
12:12 AM,55.4,53.6,94,29.97,2.0,North,5.8,-,N/A,,Drizzle,10,2013-05-09 05:12:00
12:33 AM,55.4,53.6,94,29.97,2.0,North,5.8,-,0.03,Rain,Heavy Rain,360,2013-05-09 05:33:00
12:52 AM,55.4,53.6,94,29.96,1.8,North,3.5,-,0.11,Rain,Heavy Rain,360,2013-05-09 05:52:00
1:12 AM,55.4,53.6,94,29.96,1.2,NNW,5.8,-,0.02,Rain,Light Rain,340,2013-05-09 06:12:00
1:33 AM,55.4,53.6,94,29.96,2.0,North,5.8,-,0.03,,Overcast,10,2013-05-09 06:33:00
1:52 AM,55.4,55.4,100,29.95,2.5,NE,5.8,-,0.03,Rain,Light Rain,40,2013-05-09 06:52:00
2:12 AM,55.4,55.4,100,29.95,3.0,NNE,10.4,-,N/A,,Overcast,30,2013-05-09 07:12:00
2:33 AM,55.4,55.4,100,29.95,2.5,NNE,9.2,-,N/A,,Drizzle,30,2013-05-09 07:33:00
2:52 AM,55.4,55.4,100,29.95,2.5,NNE,9.2,-,0.04,Rain,Rain,20,2013-05-09 07:52:00
3:12 AM,55.4,55.4,100,29.94,3.0,NNE,10.4,-,0.04,Rain,Rain,20,2013-05-09 08:12:00
3:33 AM,55.4,55.4,100,29.94,2.5,NNE,10.4,-,0.06,Rain,Rain,20,2013-05-09 08:33:00
3:52 AM,55.4,55.4,100,29.94,3.0,NNE,10.4,-,0.08,,Drizzle,30,2013-05-09 08:52:00
4:33 AM,55.4,55.4,100,29.94,3.0,NNE,11.5,-,0.05,Rain,Light Rain,30,2013-05-09 09:33:00
4:52 AM,55.4,55.4,100,29.94,3.0,NNE,10.4,-,0.05,Rain,Light Rain,30,2013-05-09 09:52:00
5:12 AM,55.4,55.4,100,29.94,2.5,NNE,11.5,-,N/A,Rain,Light Rain,20,2013-05-09 10:12:00
5:33 AM,55.4,53.6,94,29.94,2.5,NNE,11.5,-,N/A,,Light Drizzle,30,2013-05-09 10:33:00
5:52 AM,55.4,53.6,94,29.94,3.0,NNE,10.4,-,N/A,,Light Drizzle,30,2013-05-09 10:52:00
6:13 AM,55.4,53.6,94,29.94,3.0,NNE,13.8,19.6,N/A,,Light Drizzle,30,2013-05-09 11:13:00
6:33 AM,55.4,53.6,94,29.95,3.0,NNE,11.5,16.1,N/A,,Light Drizzle,30,2013-05-09 11:33:00
6:52 AM,55.4,53.6,94,29.95,3.0,NNE,13.8,-,N/A,Rain,Light Rain,30,2013-05-09 11:52:00
7:13 AM,55.4,53.6,94,29.96,4.0,NNE,10.4,-,N/A,,Overcast,30,2013-05-09 12:13:00
7:33 AM,55.4,53.6,94,29.96,3.0,NNE,10.4,-,0.01,Rain,Rain,30,2013-05-09 12:33:00
7:52 AM,55.4,53.6,94,29.97,1.5,NNE,9.2,-,0.04,Rain,Light Rain,30,2013-05-09 12:52:00
8:13 AM,55.4,53.6,94,29.97,3.0,NNE,11.5,-,0.02,Rain,Rain,20,2013-05-09 13:13:00
8:33 AM,55.4,53.6,94,29.97,2.5,North,12.7,-,0.03,Rain,Rain,10,2013-05-09 13:33:00
8:52 AM,55.4,53.6,94,29.97,2.5,North,11.5,-,0.05,Rain,Light Rain,10,2013-05-09 13:52:00
9:13 AM,55.4,53.6,94,29.98,5.0,North,12.7,-,0.01,Rain,Light Rain,10,2013-05-09 14:13:00
9:33 AM,55.4,53.6,94,29.98,5.0,North,12.7,-,0.01,,Light Drizzle,360,2013-05-09 14:33:00
9:52 AM,55.4,53.6,94,29.98,4.0,North,11.5,-,0.01,,Light Drizzle,360,2013-05-09 14:52:00
10:32 AM,55.4,53.6,94,29.99,4.0,North,16.1,20.7,N/A,Rain,Light Rain,360,2013-05-09 15:32:00
10:52 AM,55.4,53.6,94,29.99,5.0,North,15.0,19.6,N/A,,Light Drizzle,360,2013-05-09 15:52:00
11:13 AM,55.4,53.6,94,29.99,7.0,North,15.0,20.7,N/A,,Light Drizzle,360,2013-05-09 16:13:00
11:32 AM,57.2,53.6,88,29.99,10.0,North,13.8,-,N/A,,Overcast,10,2013-05-09 16:32:00
11:52 AM,57.2,53.6,88,29.99,10.0,North,18.4,21.9,N/A,,Mostly Cloudy,10,2013-05-09 16:52:00
12:13 PM,60.8,55.4,82,29.99,10.0,North,17.3,23.0,N/A,,Mostly Cloudy,10,2013-05-09 17:13:00
12:52 PM,60.8,55.4,82,29.99,10.0,North,16.1,-,N/A,,Overcast,350,2013-05-09 17:52:00
1:13 PM,57.2,55.4,94,29.99,10.0,North,17.3,20.7,N/A,,Overcast,350,2013-05-09 18:13:00
1:32 PM,57.2,53.6,88,29.99,10.0,North,17.3,25.3,N/A,,Overcast,360,2013-05-09 18:32:00
1:52 PM,57.2,53.6,88,29.99,10.0,North,18.4,25.3,N/A,,Light Drizzle,360,2013-05-09 18:52:00
2:13 PM,57.2,53.6,88,29.99,10.0,North,18.4,25.3,N/A,,Overcast,350,2013-05-09 19:13:00
2:32 PM,57.2,53.6,88,29.99,7.0,North,20.7,27.6,N/A,,Overcast,350,2013-05-09 19:32:00
2:52 PM,57.2,53.6,88,29.99,7.0,North,20.7,25.3,N/A,,Overcast,360,2013-05-09 19:52:00
3:12 PM,57.2,53.6,88,29.99,10.0,North,19.6,-,N/A,,Overcast,360,2013-05-09 20:12:00
3:32 PM,57.2,53.6,88,30.00,10.0,North,21.9,-,N/A,,Light Drizzle,10,2013-05-09 20:32:00
3:53 PM,57.2,51.8,82,30.00,10.0,North,21.9,-,N/A,,Overcast,10,2013-05-09 20:53:00
4:12 PM,55.4,51.8,88,30.00,10.0,North,17.3,-,N/A,,Overcast,10,2013-05-09 21:12:00
4:32 PM,55.4,51.8,88,30.00,10.0,North,20.7,25.3,N/A,,Overcast,10,2013-05-09 21:32:00
4:53 PM,55.4,51.8,88,30.00,10.0,North,17.3,-,N/A,,Mostly Cloudy,10,2013-05-09 21:53:00
5:12 PM,55.4,51.8,88,30.01,10.0,North,17.3,20.7,N/A,,Mostly Cloudy,10,2013-05-09 22:12:00
5:32 PM,55.4,51.8,88,30.01,10.0,North,23.0,26.5,N/A,,Mostly Cloudy,10,2013-05-09 22:32:00
5:53 PM,53.6,48.2,82,30.02,10.0,North,19.6,25.3,N/A,,Overcast,10,2013-05-09 22:53:00
6:12 PM,53.6,48.2,82,30.02,10.0,NNE,17.3,-,N/A,,Overcast,20,2013-05-09 23:12:00
6:32 PM,53.6,48.2,82,30.03,10.0,NNE,16.1,24.2,N/A,,Overcast,20,2013-05-09 23:32:00
7:12 PM,53.6,48.2,82,30.03,10.0,NNE,13.8,-,N/A,,Overcast,20,2013-05-10 00:12:00
7:32 PM,53.6,48.2,82,30.04,10.0,NNE,15.0,-,N/A,,Overcast,20,2013-05-10 00:32:00
7:53 PM,53.6,48.2,82,30.04,10.0,NNE,18.4,-,N/A,,Overcast,20,2013-05-10 00:53:00
8:12 PM,51.8,46.4,82,30.05,10.0,North,17.3,-,N/A,,Overcast,10,2013-05-10 01:12:00
8:32 PM,50.0,46.4,87,30.06,10.0,NNE,12.7,23.0,N/A,,Overcast,20,2013-05-10 01:32:00
9:12 PM,48.2,44.6,87,30.07,10.0,NNE,12.7,-,N/A,,Overcast,20,2013-05-10 02:12:00
9:32 PM,48.2,44.6,87,30.08,10.0,NNE,13.8,-,N/A,,Overcast,20,2013-05-10 02:32:00
9:53 PM,48.2,44.6,87,30.08,10.0,North,16.1,-,N/A,,Overcast,360,2013-05-10 02:53:00
10:12 PM,48.2,42.8,82,30.09,10.0,North,15.0,20.7,N/A,,Overcast,10,2013-05-10 03:12:00
10:32 PM,46.4,42.8,87,30.09,10.0,North,17.3,-,N/A,,Overcast,360,2013-05-10 03:32:00
10:53 PM,46.4,42.8,87,30.09,10.0,North,16.1,-,N/A,,Overcast,360,2013-05-10 03:53:00
11:13 PM,46.4,42.8,87,30.09,10.0,North,15.0,-,N/A,,Overcast,360,2013-05-10 04:13:00
11:32 PM,46.4,42.8,87,30.09,10.0,North,13.8,-,N/A,,Overcast,10,2013-05-10 04:32:00